TimeEDT,TemperatureF,Dew PointF,Humidity,Sea Level PressureIn,VisibilityMPH,Wind Direction,Wind SpeedMPH,Gust SpeedMPH,PrecipitationIn,Events,Conditions,WindDirDegrees,DateUTC
12:15 AM,54.0,48.6,82,30.05,10.0,NNW,5.8,-,N/A,,Scattered Clouds,340,2013-09-14 04:15:00
12:35 AM,53.6,48.2,82,30.06,10.0,Calm,Calm,-,N/A,,Clear,0,2013-09-14 04:35:00
12:55 AM,52.9,48.2,84,30.05,10.0,NNW,3.5,-,N/A,,Clear,330,2013-09-14 04:55:00
1:15 AM,52.9,47.7,82,30.06,10.0,North,4.6,-,N/A,,Clear,350,2013-09-14 05:15:00
1:35 AM,52.9,47.7,82,30.06,10.0,Calm,Calm,-,N/A,,Scattered Clouds,0,2013-09-14 05:35:00
1:55 AM,52.7,47.3,82,30.06,10.0,Calm,Calm,-,N/A,,Scattered Clouds,0,2013-09-14 05:55:00
2:15 AM,53.2,48.0,82,30.06,10.0,ENE,3.5,-,N/A,,Mostly Cloudy,60,2013-09-14 06:15:00
2:35 AM,53.6,48.4,82,30.06,10.0,Calm,Calm,-,N/A,,Overcast,0,2013-09-14 06:35:00
2:55 AM,53.8,48.4,82,30.05,10.0,Calm,Calm,-,N/A,,Overcast,0,2013-09-14 06:55:00
3:15 AM,53.8,48.7,83,30.05,10.0,Calm,Calm,-,N/A,,Overcast,0,2013-09-14 07:15:00
3:35 AM,53.4,48.7,84,30.05,10.0,Calm,Calm,-,N/A,,Overcast,0,2013-09-14 07:35:00
3:55 AM,52.0,49.6,92,30.05,10.0,Calm,Calm,-,N/A,,Overcast,0,2013-09-14 07:55:00
4:15 AM,53.6,48.0,81,30.05,10.0,Calm,Calm,-,N/A,,Overcast,0,2013-09-14 08:15:00
4:35 AM,53.2,47.8,82,30.05,10.0,NNE,3.5,-,N/A,,Overcast,20,2013-09-14 08:35:00
4:55 AM,53.1,47.8,82,30.05,10.0,NE,4.6,-,N/A,,Overcast,40,2013-09-14 08:55:00
5:15 AM,52.7,47.7,83,30.06,10.0,NE,3.5,-,N/A,,Overcast,40,2013-09-14 09:15:00
5:35 AM,51.4,47.7,87,30.05,10.0,Calm,Calm,-,N/A,,Scattered Clouds,0,2013-09-14 09:35:00
5:55 AM,51.1,47.3,87,30.05,10.0,NNE,5.8,-,N/A,,Clear,20,2013-09-14 09:55:00
6:15 AM,51.1,47.3,87,30.06,10.0,NNE,4.6,-,N/A,,Scattered Clouds,30,2013-09-14 10:15:00
6:35 AM,50.7,46.9,87,30.07,10.0,NE,3.5,-,N/A,,Scattered Clouds,50,2013-09-14 10:35:00
6:55 AM,50.2,46.9,89,30.08,10.0,ENE,3.5,-,N/A,,Scattered Clouds,70,2013-09-14 10:55:00
7:15 AM,50.2,46.6,87,30.09,10.0,Calm,Calm,-,N/A,,Scattered Clouds,0,2013-09-14 11:15:00
7:35 AM,51.3,47.3,86,30.10,10.0,ENE,5.8,-,N/A,,Overcast,70,2013-09-14 11:35:00
7:55 AM,51.8,47.3,85,30.11,10.0,Calm,Calm,-,N/A,,Overcast,0,2013-09-14 11:55:00
8:15 AM,52.5,47.3,82,30.11,10.0,ENE,4.6,-,N/A,,Overcast,70,2013-09-14 12:15:00
8:35 AM,52.2,47.3,83,30.12,10.0,NE,4.6,-,N/A,,Overcast,50,2013-09-14 12:35:00
8:55 AM,52.7,46.8,80,30.13,10.0,NE,4.6,-,N/A,,Overcast,50,2013-09-14 12:55:00
9:15 AM,52.9,47.8,83,30.14,10.0,Calm,Calm,-,N/A,,Mostly Cloudy,0,2013-09-14 13:15:00
9:35 AM,53.8,47.5,79,30.14,10.0,ENE,5.8,-,N/A,,Scattered Clouds,70,2013-09-14 13:35:00
9:55 AM,56.1,48.2,75,30.14,10.0,ENE,3.5,-,N/A,,Clear,60,2013-09-14 13:55:00
10:15 AM,56.7,46.0,68,30.14,10.0,ENE,8.1,-,N/A,,Clear,70,2013-09-14 14:15:00
10:35 AM,58.1,46.0,64,30.15,10.0,NE,8.1,-,N/A,,Clear,50,2013-09-14 14:35:00
10:55 AM,59.4,46.8,63,30.15,10.0,NE,5.8,-,N/A,,Clear,50,2013-09-14 14:55:00
11:15 AM,59.5,46.2,61,30.15,10.0,Calm,Calm,-,N/A,,Clear,0,2013-09-14 15:15:00
11:35 AM,60.8,45.9,58,30.15,10.0,NNE,3.5,-,N/A,,Clear,20,2013-09-14 15:35:00
11:55 AM,62.1,45.3,54,30.14,10.0,NNE,3.5,-,N/A,,Clear,20,2013-09-14 15:55:00
12:15 PM,62.6,44.6,52,30.14,10.0,NE,5.8,-,N/A,,Clear,50,2013-09-14 16:15:00
12:35 PM,63.1,45.7,53,30.14,10.0,North,3.5,-,N/A,,Clear,350,2013-09-14 16:35:00
12:55 PM,63.9,46.2,53,30.13,10.0,ENE,3.5,-,N/A,,Clear,70,2013-09-14 16:55:00
1:15 PM,64.6,46.2,51,30.13,10.0,NE,3.5,-,N/A,,Clear,40,2013-09-14 17:15:00
1:35 PM,67.8,46.2,46,30.13,10.0,ENE,4.6,-,N/A,,Clear,60,2013-09-14 17:35:00
1:55 PM,66.6,43.3,43,30.13,10.0,North,3.5,-,N/A,,Clear,350,2013-09-14 17:55:00
2:15 PM,66.9,43.9,43,30.13,10.0,ENE,3.5,-,N/A,,Clear,60,2013-09-14 18:15:00
2:35 PM,67.3,44.6,44,30.12,10.0,East,3.5,-,N/A,,Clear,80,2013-09-14 18:35:00
2:55 PM,68.0,42.4,39,30.12,10.0,NNE,4.6,-,N/A,,Clear,30,2013-09-14 18:55:00
3:15 PM,68.5,46.2,45,30.12,10.0,Calm,Calm,-,N/A,,Clear,0,2013-09-14 19:15:00
3:35 PM,68.2,45.3,44,30.12,10.0,Calm,Calm,-,N/A,,Clear,0,2013-09-14 19:35:00
3:55 PM,68.7,45.5,43,30.12,10.0,Calm,Calm,-,N/A,,Clear,0,2013-09-14 19:55:00
4:15 PM,69.3,45.7,43,30.12,10.0,NE,3.5,-,N/A,,Clear,40,2013-09-14 20:15:00
4:35 PM,69.4,46.2,43,30.12,10.0,WNW,4.6,-,N/A,,Clear,290,2013-09-14 20:35:00
4:55 PM,69.4,46.9,45,30.12,10.0,North,4.6,-,N/A,,Clear,360,2013-09-14 20:55:00
5:15 PM,69.1,48.6,48,30.12,10.0,NE,4.6,-,N/A,,Clear,40,2013-09-14 21:15:00
5:35 PM,69.1,48.9,49,30.12,10.0,North,3.5,-,N/A,,Clear,10,2013-09-14 21:35:00
5:55 PM,68.4,49.6,51,30.12,10.0,NE,4.6,-,N/A,,Clear,40,2013-09-14 21:55:00
6:15 PM,68.0,49.1,51,30.13,10.0,NNE,3.5,-,N/A,,Clear,30,2013-09-14 22:15:00
6:35 PM,67.1,50.0,54,30.13,10.0,NNE,4.6,-,N/A,,Clear,20,2013-09-14 22:35:00
6:55 PM,65.7,51.1,59,30.13,10.0,NNE,3.5,-,N/A,,Clear,20,2013-09-14 22:55:00
7:15 PM,64.2,50.9,62,30.14,10.0,North,3.5,-,N/A,,Clear,10,2013-09-14 23:15:00
7:35 PM,62.8,50.5,64,30.14,10.0,North,4.6,-,N/A,,Clear,350,2013-09-14 23:35:00
7:55 PM,62.1,50.0,65,30.15,10.0,North,3.5,-,N/A,,Clear,360,2013-09-14 23:55:00
8:15 PM,61.2,49.6,66,30.16,10.0,NE,4.6,-,N/A,,Clear,50,2013-09-15 00:15:00
8:35 PM,60.3,48.9,66,30.16,10.0,ENE,3.5,-,N/A,,Clear,60,2013-09-15 00:35:00
8:55 PM,60.1,48.6,66,30.16,10.0,ENE,4.6,-,N/A,,Clear,70,2013-09-15 00:55:00
9:15 PM,59.4,48.9,68,30.16,10.0,East,4.6,-,N/A,,Clear,80,2013-09-15 01:15:00
9:35 PM,59.7,48.9,67,30.16,10.0,ENE,3.5,-,N/A,,Clear,70,2013-09-15 01:35:00
9:55 PM,59.7,49.1,68,30.17,10.0,ENE,3.5,-,N/A,,Clear,70,2013-09-15 01:55:00
10:15 PM,58.3,49.3,72,30.17,10.0,ENE,3.5,-,N/A,,Clear,60,2013-09-15 02:15:00
10:35 PM,57.2,49.6,76,30.17,10.0,Calm,Calm,-,N/A,,Clear,0,2013-09-15 02:35:00
10:55 PM,56.5,50.0,79,30.17,10.0,ENE,3.5,-,N/A,,Clear,70,2013-09-15 02:55:00
11:15 PM,57.4,49.1,74,30.17,10.0,Calm,Calm,-,N/A,,Clear,0,2013-09-15 03:15:00
11:35 PM,56.7,49.5,77,30.17,10.0,ENE,5.8,-,N/A,,Clear,70,2013-09-15 03:35:00
11:55 PM,56.7,49.5,77,30.17,10.0,Calm,Calm,-,N/A,,Clear,0,2013-09-15 03:55:00